TimeEST,TemperatureF,Dew PointF,Humidity,Sea Level PressureIn,VisibilityMPH,Wind Direction,Wind SpeedMPH,Gust SpeedMPH,PrecipitationIn,Events,Conditions,WindDirDegrees,DateUTC
12:15 AM,44.6,30.2,57,30.19,10.0,NNE,4.6,-,N/A,,Scattered Clouds,20,2012-12-12 05:15:00
12:35 AM,44.2,30.2,58,30.18,10.0,North,4.6,-,N/A,,Clear,10,2012-12-12 05:35:00
12:55 AM,43.9,30.2,59,30.19,10.0,North,4.6,-,N/A,,Clear,10,2012-12-12 05:55:00
1:15 AM,43.5,30.2,59,30.19,10.0,North,-9999.0,-,N/A,,Scattered Clouds,0,2012-12-12 06:15:00
1:35 AM,43.2,30.0,60,30.20,10.0,North,4.6,-,N/A,,Scattered Clouds,10,2012-12-12 06:35:00
1:55 AM,42.8,29.7,60,30.20,10.0,NNE,6.9,-,N/A,,Clear,30,2012-12-12 06:55:00
2:15 AM,42.8,29.7,60,30.20,10.0,NNE,9.2,-,N/A,,Scattered Clouds,20,2012-12-12 07:15:00
2:35 AM,42.8,29.5,59,30.20,10.0,NNE,6.9,-,N/A,,Clear,30,2012-12-12 07:35:00
2:55 AM,42.8,29.8,60,30.20,10.0,NNE,8.1,-,N/A,,Mostly Cloudy,30,2012-12-12 07:55:00
3:15 AM,43.2,30.0,60,30.20,10.0,NNE,6.9,-,N/A,,Overcast,20,2012-12-12 08:15:00
3:35 AM,43.7,30.2,59,30.21,10.0,North,5.8,-,N/A,,Overcast,10,2012-12-12 08:35:00
3:55 AM,43.7,30.6,60,30.21,10.0,NNE,6.9,-,N/A,,Overcast,30,2012-12-12 08:55:00
4:15 AM,43.7,30.7,60,30.22,10.0,NNE,6.9,-,N/A,,Overcast,20,2012-12-12 09:15:00
4:35 AM,43.7,30.9,61,30.22,10.0,NNE,5.8,-,N/A,,Overcast,30,2012-12-12 09:35:00
4:55 AM,43.7,31.1,61,30.23,10.0,North,8.1,-,N/A,,Overcast,10,2012-12-12 09:55:00
5:15 AM,43.5,31.1,62,30.24,10.0,NNE,4.6,-,N/A,,Overcast,20,2012-12-12 10:15:00
5:35 AM,43.3,31.6,63,30.24,10.0,North,8.1,-,N/A,,Overcast,10,2012-12-12 10:35:00
5:55 AM,43.2,31.8,64,30.25,10.0,NNE,8.1,-,N/A,,Overcast,30,2012-12-12 10:55:00
6:15 AM,42.8,32.0,66,30.25,10.0,NNE,9.2,-,N/A,,Overcast,20,2012-12-12 11:15:00
6:35 AM,43.2,32.0,65,30.25,10.0,NNE,6.9,-,N/A,,Overcast,30,2012-12-12 11:35:00
6:55 AM,43.3,32.5,66,30.25,10.0,NE,10.4,-,N/A,,Overcast,40,2012-12-12 11:55:00
7:15 AM,43.2,32.7,67,30.26,10.0,NNE,8.1,-,N/A,,Overcast,20,2012-12-12 12:15:00
7:35 AM,43.2,32.9,67,30.26,10.0,NE,8.1,-,N/A,,Overcast,40,2012-12-12 12:35:00
7:55 AM,43.3,33.4,68,30.28,10.0,NNE,9.2,-,N/A,,Overcast,30,2012-12-12 12:55:00
8:15 AM,43.7,33.6,68,30.30,10.0,NNE,5.8,-,N/A,,Overcast,20,2012-12-12 13:15:00
8:35 AM,43.7,33.6,68,30.30,10.0,NNE,6.9,-,N/A,,Overcast,20,2012-12-12 13:35:00
8:55 AM,43.7,33.6,68,30.30,10.0,NE,11.5,-,N/A,,Overcast,40,2012-12-12 13:55:00
9:15 AM,43.7,32.9,66,30.32,10.0,NNE,12.7,17.3,N/A,,Overcast,30,2012-12-12 14:15:00
9:35 AM,43.9,33.3,66,30.31,10.0,NE,11.5,19.6,N/A,,Overcast,40,2012-12-12 14:35:00
9:55 AM,44.2,32.9,64,30.31,10.0,NE,15.0,19.6,N/A,,Overcast,40,2012-12-12 14:55:00
10:15 AM,44.6,32.9,64,30.32,10.0,NE,16.1,20.7,N/A,,Overcast,40,2012-12-12 15:15:00
10:35 AM,44.8,32.9,63,30.31,10.0,NNE,13.8,20.7,N/A,,Overcast,30,2012-12-12 15:35:00
10:55 AM,45.1,33.1,63,30.33,10.0,NE,13.8,19.6,N/A,,Overcast,50,2012-12-12 15:55:00
11:15 AM,45.1,33.1,63,30.32,10.0,NNE,13.8,-,N/A,,Overcast,20,2012-12-12 16:15:00
11:35 AM,45.5,33.1,62,30.31,10.0,NNE,12.7,17.3,N/A,,Overcast,30,2012-12-12 16:35:00
11:55 AM,45.5,32.7,61,30.31,10.0,NE,12.7,19.6,N/A,,Overcast,40,2012-12-12 16:55:00
12:15 PM,45.5,32.9,61,30.31,10.0,NE,10.4,-,N/A,,Overcast,50,2012-12-12 17:15:00
12:35 PM,45.7,32.9,61,30.30,10.0,NE,10.4,-,N/A,,Overcast,40,2012-12-12 17:35:00
12:55 PM,45.5,32.5,61,30.30,10.0,NE,11.5,-,N/A,,Overcast,40,2012-12-12 17:55:00
1:15 PM,45.7,32.0,59,30.30,10.0,NE,11.5,16.1,N/A,,Overcast,40,2012-12-12 18:15:00
1:35 PM,46.4,32.2,58,30.29,10.0,NNE,9.2,16.1,N/A,,Overcast,20,2012-12-12 18:35:00
1:55 PM,46.0,32.0,58,30.28,10.0,NE,10.4,-,N/A,,Overcast,40,2012-12-12 18:55:00
2:15 PM,45.9,32.2,59,30.29,10.0,NNE,6.9,-,N/A,Rain,Light Rain,30,2012-12-12 19:15:00
2:35 PM,43.7,35.8,74,30.29,10.0,NNE,8.1,-,N/A,Rain,Rain,30,2012-12-12 19:35:00
2:55 PM,42.3,38.1,85,30.27,10.0,NE,9.2,-,0.02,Rain,Light Rain,50,2012-12-12 19:55:00
3:15 PM,42.1,37.8,85,30.28,10.0,NNE,6.9,-,0.01,Rain,Light Rain,20,2012-12-12 20:15:00
3:35 PM,42.1,37.6,84,30.30,10.0,NNE,5.8,-,0.02,Rain,Light Rain,20,2012-12-12 20:35:00
3:55 PM,41.9,38.7,88,30.30,10.0,ENE,8.1,-,0.03,Rain,Light Rain,60,2012-12-12 20:55:00
4:15 PM,41.5,38.3,88,30.29,10.0,NE,4.6,-,0.01,Rain,Light Rain,50,2012-12-12 21:15:00
4:35 PM,41.4,38.5,89,30.30,10.0,NE,3.5,-,0.01,,Light Drizzle,50,2012-12-12 21:35:00
4:55 PM,41.5,38.1,88,30.29,10.0,ENE,5.8,-,0.01,,Overcast,70,2012-12-12 21:55:00
5:15 PM,41.5,37.8,86,30.30,10.0,ENE,6.9,-,N/A,,Overcast,60,2012-12-12 22:15:00
5:35 PM,41.5,37.6,86,30.30,10.0,North,-9999.0,-,N/A,,Overcast,0,2012-12-12 22:35:00
5:55 PM,41.4,37.8,87,30.30,10.0,NE,4.6,-,N/A,,Light Drizzle,40,2012-12-12 22:55:00
6:15 PM,41.5,37.6,86,30.31,10.0,NNE,3.5,-,N/A,,Overcast,20,2012-12-12 23:15:00
6:55 PM,42.8,35.6,76,30.33,10.0,NNE,6.9,-,N/A,,Overcast,30,2012-12-12 23:55:00
7:15 PM,41.0,37.4,87,30.33,10.0,NE,8.1,-,N/A,Rain,Rain,40,2012-12-13 00:15:00
7:35 PM,41.0,36.5,84,30.32,10.0,ENE,11.5,-,0.01,Rain,Rain,60,2012-12-13 00:35:00
7:55 PM,40.6,37.2,88,30.32,10.0,ENE,10.4,-,0.02,Rain,Light Rain,70,2012-12-13 00:55:00
8:15 PM,40.3,37.2,89,30.32,10.0,NE,8.1,-,N/A,Rain,Light Rain,50,2012-12-13 01:15:00
8:35 PM,40.1,37.4,90,30.34,10.0,NNE,8.1,-,0.01,Rain,Rain,20,2012-12-13 01:35:00
8:55 PM,39.9,37.4,91,30.32,10.0,NE,10.4,17.3,0.02,Rain,Light Rain,40,2012-12-13 01:55:00
9:15 PM,39.7,37.8,93,30.32,10.0,NE,6.9,-,N/A,,Drizzle,40,2012-12-13 02:15:00
9:35 PM,39.6,37.4,92,30.31,10.0,NE,8.1,-,N/A,,Overcast,40,2012-12-13 02:35:00
9:55 PM,39.7,37.2,91,30.32,10.0,NNE,12.7,17.3,N/A,,Light Drizzle,30,2012-12-13 02:55:00
10:15 PM,39.9,36.5,88,30.33,10.0,NNE,9.2,16.1,N/A,,Overcast,30,2012-12-13 03:15:00
10:35 PM,40.1,36.5,87,30.34,10.0,NNE,11.5,-,N/A,,Overcast,30,2012-12-13 03:35:00
10:55 PM,40.1,36.3,86,30.34,10.0,NE,10.4,-,N/A,,Overcast,50,2012-12-13 03:55:00
11:15 PM,40.1,35.6,84,30.32,10.0,NE,11.5,20.7,N/A,,Overcast,40,2012-12-13 04:15:00
11:35 PM,40.1,35.4,83,30.33,10.0,NNE,12.7,-,N/A,,Overcast,30,2012-12-13 04:35:00
11:55 PM,40.1,35.1,82,30.35,10.0,NNE,8.1,-,N/A,,Overcast,20,2012-12-13 04:55:00